Location: Caltech
(34.1382°N, 118.1253°W)
Time: 13:16:28
(UTC-07:00)

CZ-4B DEB - Visible Passes

Search period start: 29 May 2015 00:00
Search period end: 08 June 2015 00:00
Orbit: 842 x 864 km, 98.9° (Epoch: 28 May)

Date Brightness Start Highest point End Pass type
(mag) Time Alt. Az. Time Alt. Az. Time Alt. Az.
29 May 4.3 04:22:42 10° NNE 04:28:17 84° ESE 04:33:51 10° SSW visible
30 May 4.6 04:11:33 10° NNE 04:17:04 66° E 04:22:36 10° S visible
31 May 5.0 04:00:28 10° NNE 04:05:51 51° E 04:11:16 10° S visible
01 Jun 5.4 03:49:27 10° NNE 03:54:37 40° E 03:59:49 10° SSE visible
02 Jun 5.8 03:38:31 10° NE 03:43:21 31° E 03:48:16 10° SSE visible
03 Jun 6.1 03:27:41 10° NE 03:32:03 24° E 03:36:34 10° SSE visible
03 Jun 4.9 05:07:48 10° N 05:12:54 37° WNW 05:17:56 10° SW visible
04 Jun 6.4 03:17:00 10° NE 03:20:44 19° E 03:24:41 10° SE visible
04 Jun 4.6 04:56:26 10° N 05:01:46 47° WNW 05:07:03 10° SW visible
05 Jun 6.6 03:06:35 10° ENE 03:09:23 15° E 03:12:31 10° SE visible
05 Jun 4.4 04:45:08 10° N 04:50:36 61° WNW 04:56:04 10° SSW visible
06 Jun 6.8 02:56:55 10° ENE 02:58:01 11° E 02:59:33 10° ESE visible
06 Jun 4.2 04:33:52 10° N 04:39:27 78° WNW 04:45:00 10° SSW visible
07 Jun 4.3 04:22:40 10° NNE 04:28:16 84° ESE 04:33:50 10° SSW visible
